This is the latest recevied weather packets stored in our database for station/object N9BLE. If no packets are shown the sender has not sent any weather packets the latest 10 day(s).
| Time | Temp. | Humidity | Pressure | Rain* | Wind** | Luminosity | Snow |
|---|---|---|---|---|---|---|---|
| 1777834174 | 17.22° C | 55% | 1012.8 hPa | 0 mm | - | 670 W/m² | - |
| 1777833871 | 16.11° C | 63% | 1012.6 hPa | 0 mm | - | 735 W/m² | - |
| 1777833567 | 16.11° C | 62% | 1012.6 hPa | 0 mm | - | 731 W/m² | - |
| 1777833264 | 16.11° C | 61% | 1012.9 hPa | 0 mm | - | 737 W/m² | - |
| 1777832961 | 16.11° C | 61% | 1013.2 hPa | 0 mm | - | 745 W/m² | - |
| 1777832660 | 15.56° C | 62% | 1013 hPa | 0 mm | - | 731 W/m² | - |
| 1777832357 | 15° C | 68% | 1013.2 hPa | 0 mm | - | 747 W/m² | - |
| 1777832054 | 14.44° C | 66% | 1013.1 hPa | 0 mm | - | 720 W/m² | - |
| 1777831750 | 15° C | 68% | 1013.4 hPa | 0 mm | - | 678 W/m² | - |
| 1777831448 | 14.44° C | 68% | 1013.4 hPa | 0 mm | - | 767 W/m² | - |
| 1777831144 | 13.33° C | 70% | 1013.4 hPa | 0 mm | - | 785 W/m² | - |
| 1777830843 | 13.33° C | 72% | 1013.6 hPa | 0 mm | - | 647 W/m² | - |
| 1777830538 | 13.33° C | 72% | 1013.8 hPa | 0 mm | - | 739 W/m² | - |
| 1777830236 | 12.22° C | 75% | 1014 hPa | 0 mm | - | 849 W/m² | - |
| 1777829931 | 11.67° C | 75% | 1014.1 hPa | 0 mm | - | 677 W/m² | - |
| 1777829627 | 11.67° C | 76% | 1014.2 hPa | 0 mm | - | 331 W/m² | - |
| 1777829324 | 11.11° C | 77% | 1014.4 hPa | 0 mm | - | 303 W/m² | - |
| 1777829022 | 11.11° C | 77% | 1014.4 hPa | 0 mm | - | 310 W/m² | - |
| 1777828718 | 10.56° C | 79% | 1014.3 hPa | 0 mm | - | 298 W/m² | - |
| 1777828415 | 10.56° C | 81% | 1014.2 hPa | 0 mm | - | 244 W/m² | - |
| 1777828112 | 10° C | 82% | 1014.8 hPa | 0 mm | - | 236 W/m² | - |
| 1777827808 | 10° C | 83% | 1014.8 hPa | 0 mm | - | 266 W/m² | - |
| 1777827506 | 9.44° C | 84% | 1015.1 hPa | 0 mm | - | 215 W/m² | - |
| 1777827204 | 9.44° C | 85% | 1015.3 hPa | 0 mm | - | 218 W/m² | - |
| 1777826899 | 8.89° C | 87% | 1015.2 hPa | 0 mm | - | 205 W/m² | - |
* Rain latest hour (hover to see other rain measurements)
** Current wind speed in m/s (hover to see current wind gust speed)